FENGYUN 1C DEB, 31883

Orbit data source: Space-Track

FENGYUN 1C DEB, 31883 is space debris in SSO originally from a launch on Mon, 10 May 1999 UTC launched from the Taiyaun Space Center, China (TSC). Fengyun 1C debris stems from the Chinese weather satellite Fengyun-1C, which was intentionally destroyed by a Chinese anti-satellite missile in 2007. This event dramatically increased the amount of space debris, with thousands of trackable fragments posing hazards to satellites and human spaceflight. The Fengyun 1C debris cloud has become a focal point in discussions about space sustainability and the need for international regulations to prevent the creation of new debris.

Loading next visibility...
Identifier
31883, 1999-025CKJ
Orbit
SSO
Country
Flag of CNCN / PRC
Related business
Manufacturer
Unknown
Mission
Spacecraft
Bus & Motor
Unknown
Mass
Unknown
Launch date (UTC)
1999-05-10 (27 years ago)
Launch vehicle
Unknown
Launch site
Taiyaun Space Center, China (TSC)
Object type
Payload
Rocket body
Debris
Shape & HBR
Unknown shape, 0.1 m
Radar Cross Section
Small (<0.1 m²)

Expand to show TLE details & history
Last TLE update: 1 week ago

TLE from 1 week ago
0 FENGYUN 1C DEB
1 31883U 99025CKJ 26153.04496817  .00003094  00000-0  47879-3 0  9998
2 31883  99.0359  92.4971 0118940 260.1726  98.6030 14.69468670  4785
Epoch: 2026-06-02T01:04Z
TLE epoch observation values (Epoch: 2026-06-02T01:04:45.249Z)
Latitude
-0.00009°
Longitude
-174.215°
Altitude
679.237 km
Speed
7.51 km/s
True Right ascension
06h 09m 59s
True Declination
0° 00' 00"
Sunlit
Object was in daylight at epoch
Visualization orbit readout
Latitude
Unknown
Longitude
Unknown
Altitude
Unknown
Speed
Unknown
Apparent Right ascension
Unknown
Apparent Declination
Unknown
Sunlit
N/A
Visualization observer readout
Local Sidereal Time
22:00:30
Azimuth
Unknown
Elevation
Unknown
Doppler factor
Unknown
Orbital elements
Apogee altitude
743.583 km
Perigee altitude
576.163 km
Semi-major axis
7,038.01 km
Eccentricity
0.01189
Inclination
99.0359°
RAAN
92.4971°
Arg. of periapsis
260.1726°
True anomaly
99.9475°
Mean anomaly
98.603°
Eccentric anomaly
99.27557°
Mean motion
3.67594 °/min
Orbital period
97.93 mins
BSTAR
0.00047879
Loading maneuver chart data...
Computing Atmospheric mass density...

Documentation

Showing up to 5 results
|